Location: Mercogliano
(40.9167°N, 14.7333°E)
Time: 14:35:41
(UTC+00:00)

X-37B - Pass Details

Date: 04 December 2020
Orbit: 384 x 390 km, 45.0° (Epoch: 02 January)

Event Time Altitude Azimuth Distance (km) Brightness Sun altitude
Rises 16:05:36 0° 274° (W) 2,260 5.7 -6.3°
Reaches altitude 10° 16:07:45 10° 283° (WNW) 1,408 4.3 -6.7°
Maximum altitude 16:10:45 39° 354° (N) 598 1.4 -7.2°
Enters shadow 16:13:42 10° 65° (ENE) 1,390 2.7 -7.7°
